Temp
-0 0 0 2 2 3 2 3 3 3 4 4 5 5 5 5 5 5 6 6 7 7 7 8 8 8 8 8 9 9 9 9 10 10 10 10 10 11 11 11 11 11 12 12 12 12 12
-2 -1 0 1 1 2 2 3 3 3 3 4 4 4 4 5 5 5 5 5 6 6 7 7 7 8 8 8 8 9 9 9 9 9 10 10 10 10 10 11 11 11 11 11 12 11 12
-4 -3 -1 1 1 2 2 2 3 3 3 3 4 4 4 4 4 4 5 5 5 5 6 7 7 7 7 8 8 8 9 9 9 9 9 9 10 10 10 10 11 11 11 11 11 11 11
-5 -4 -2 -1 1 1 2 1 1 2 3 2 2 3 4 4 4 4 4 4 5 5 5 6 6 6 7 8 8 8 8 9 9 9 9 9 9 9 9 10 10 10 10 9 10 10 10
-5 -5 -4 -2 -0 0 1 1 1 1 2 2 2 2 3 4 4 4 4 4 4 4 5 5 5 5 6 8 8 7 8 8 8 8 8 9 9 9 9 9 8 9 10 9 8 10 9
-6 -5 -5 -3 -2 1 1 1 1 1 0 2 2 2 2 2 3 3 3 3 4 4 4 4 4 4 6 7 8 8 8 8 8 8 8 8 8 8 9 9 10 11 8 8 8 8 7
-6 -6 -5 -4 -3 -1 -1 -0 0 0 0 1 2 2 2 2 2 3 3 3 3 3 4 4 4 5 6 7 7 8 8 8 8 8 7 8 8 9 8 9 7 7 6 7 7 6 7
-6 -6 -6 -6 -4 -3 -2 -3 -1 -1 -0 -0 1 1 2 2 2 2 2 3 4 4 4 4 4 4 5 5 6 6 6 6 7 7 7 7 8 8 8 8 7 7 6 7 6 6 6
-6 -6 -6 -6 -6 -4 -4 -4 -3 -2 0 -0 -0 0 1 1 1 0 2 2 2 3 2 3 4 4 4 4 5 6 6 6 6 6 7 6 6 6 7 7 6 7 6 6 6 5 5
-6 -6 -6 -6 -6 -6 -5 -4 -4 -4 -1 -0 0 -0 -0 1 1 0 1 1 1 1 -0 1 3 4 5 3 4 5 5 5 5 5 6 5 5 5 5 6 6 5 6 5 4 5 8
-6 -6 -6 -6 -6 -6 -7 -5 -5 -5 -4 -2 -1 -0 -0 -0 -0 -0 1 -1 -1 -1 -2 2 3 3 4 4 4 5 4 4 4 5 5 5 5 5 5 5 5 5 5 5 4 5 5
-6 -7 -6 -6 -7 -7 -7 -7 -6 -6 -4 -4 -3 -1 -0 -0 -0 -1 -0 -1 -3 -4 -3 -0 2 3 3 4 3 3 4 4 3 3 4 4 3 4 3 4 4 4 4 4 3 5 6
-6 -7 -7 -6 -7 -7 -7 -7 -7 -7 -5 -5 -3 -2 -1 -1 -1 -1 -1 -1 -4 -4 -2 -1 -1 0 0 3 1 2 3 3 2 1 2 2 2 2 3 3 3 3 4 6 6 6 8
-5 -6 -7 -7 -7 -7 -7 -7 -8 -7 -5 -5 -4 -3 -2 -1 -1 -1 -1 -1 -4 -2 -1 -1 -0 1 -1 -0 1 -0 1 1 1 2 5 3 3 2 1 3 3 3 4 7 7 8 10
-5 -6 -7 -7 -7 -8 -8 -8 -8 -8 -7 -5 -6 -4 -2 -2 -2 -2 -1 -3 -2 -1 -1 -1 -1 -1 -1 -1 0 -0 0 1 1 1 3 3 4 3 2 2 3 3 3 5 4 4 5
-7 -7 -7 -7 -8 -8 -8 -8 -8 -8 -7 -6 -5 -4 -3 -3 -2 -2 -1 -2 -2 -0 -0 -0 1 1 -1 -0 -0 0 0 1 1 1 2 2 3 2 2 1 2 3 3 3 4 5 6
-7 -7 -7 -7 -8 -8 -8 -8 -9 -8 -8 -6 -5 -4 -3 -3 -2 -2 -2 -2 -2 -1 -0 2 1 1 1 1 0 0 1 2 1 3 1 2 3 1 1 1 2 2 3 3 4 5 7
-7 -7 -7 -8 -8 -9 -9 -8 -9 -9 -9 -8 -6 -6 -4 -3 -3 -2 -3 -2 -1 -1 -1 -0 1 3 2 1 0 1 2 3 4 2 1 1 2 3 2 2 2 3 3 3 4 5 4
-7 -8 -8 -8 -8 -9 -9 -9 -9 -9 -9 -8 -6 -6 -4 -3 -3 -3 -3 -2 -1 -2 -2 -0 0 2 2 1 1 1 1 2 3 4 3 1 1 2 1 1 2 2 3 3 3 4 4
-8 -8 -8 -8 -8 -9 -9 -9 -9 -9 -9 -8 -8 -6 -5 -3 -3 -3 -2 -2 -2 -2 -1 -0 -0 0 1 1 1 1 0 3 3 3 2 2 2 3 4 5 4 2 2 3 3 3 3
-7 -8 -8 -8 -8 -9 -9 -9 -9 -9 -9 -9 -9 -6 -5 -5 -3 -3 -2 -2 -2 -2 -2 -1 -1 -0 -0 -0 0 0 0 2 2 2 2 2 1 1 2 3 3 3 3 3 2 3 3
-8 -8 -8 -8 -9 -9 -9 -9 -9 -10 -10 -10 -8 -8 -5 -3 -5 -3 -3 -3 -2 -2 -1 -1 -1 -1 -1 -0 0 0 0 1 2 1 1 1 1 1 1 1 2 1 2 3 2 3 3
-8 -8 -8 -8 -9 -9 -9 -10 -10 -10 -10 -9 -9 -7 -6 -6 -4 -3 -3 -2 -2 -2 -2 1 0 -1 -1 0 -0 -0 -0 0 -0 1 1 1 0 -0 1 0 0 -1 2 2 2 2 3
-6 -8 -8 -8 -9 -9 -10 -10 -10 -10 -10 -9 -9 -8 -7 -6 -5 -4 -4 -3 -3 -2 -2 -2 -1 -1 -0 -1 -1 -1 -1 -1 -0 -0 0 1 -0 -1 -1 -1 -1 2 2 2 2 2 2
-9 -8 -9 -9 -9 -10 -10 -10 -10 -10 -10 -9 -9 -9 -8 -6 -4 -3 -4 -3 -3 -2 -2 -2 -2 -2 -2 -2 -2 -2 -2 -2 -1 -1 -0 -0 -1 -2 -2 -3 0 2 1 2 1 2 2
-9 -9 -9 -9 -9 -10 -10 -10 -10 -10 -10 -9 -9 -8 -8 -7 -6 -3 -4 -3 -4 -3 -3 -2 -2 -3 -2 -2 -2 -2 -2 -2 -2 -2 -2 -2 -2 -2 -3 -1 -0 2 2 2 1 -0 1
-9 -9 -9 -9 -9 -10 -10 -10 -10 -10 -10 -9 -8 -8 -8 -7 -5 -4 -4 -4 -3 -3 -3 -3 -3 -3 -2 -3 -3 -3 -2 -2 -2 -1 -2 -3 -3 -3 -3 -3 -1 0 1 0 -1 1 1
-11 -10 -9 -8 -9 -9 -10 -10 -10 -9 -9 -9 -8 -8 -7 -7 -5 -5 -5 -4 -4 -3 -3 -3 -3 -3 -3 -3 -3 -2 -3 -3 -2 -2 -2 -1 -3 -4 -4 -3 -2 -0 -1 -1 -1 -0 -0
-10 -11 -9 -9 -9 -9 -9 -9 -9 -9 -9 -9 -8 -8 -8 -8 -5 -5 -5 -4 -4 -4 -3 -3 -3 -4 -3 -3 -3 -3 -3 -3 -3 -2 -3 -3 -3 -2 -3 -2 -2 -1 -2 -2 -1 -2 -2
Height
3018 3024 3029 3036 3043 3051 3058 3065 3072 3078 3084 3091 3096 3102 3107 3112 3117 3120 3125 3129 3133 3136 3139 3143 3146 3149 3153 3156 3159 3159 3160 3162 3163 3165 3167 3168 3169 3171 3172 3172 3173 3174 3173 3173 3173 3173 3173
3003 3011 3017 3024 3028 3037 3045 3053 3061 3068 3076 3081 3087 3094 3099 3105 3109 3114 3119 3123 3127 3131 3134 3137 3141 3144 3147 3151 3153 3154 3156 3158 3159 3162 3163 3165 3166 3167 3169 3169 3170 3170 3170 3170 3170 3170 3170
2990 2996 3004 3011 3016 3024 3029 3040 3048 3056 3064 3072 3078 3085 3091 3097 3102 3107 3112 3116 3120 3124 3128 3131 3135 3138 3140 3147 3147 3150 3151 3153 3155 3157 3159 3160 3162 3165 3166 3166 3166 3167 3167 3166 3166 3167 3166
2976 2983 2990 2998 3004 3011 3020 3029 3035 3043 3051 3062 3069 3075 3082 3089 3095 3100 3105 3109 3113 3117 3121 3125 3129 3132 3133 3139 3142 3144 3147 3149 3151 3153 3153 3156 3158 3160 3162 3162 3161 3162 3162 3164 3161 3162 3160
2962 2968 2976 2984 2992 2997 3006 3016 3024 3031 3040 3049 3058 3066 3073 3080 3086 3092 3097 3101 3106 3110 3113 3118 3122 3125 3129 3132 3135 3137 3141 3145 3146 3148 3149 3151 3153 3155 3158 3159 3159 3156 3160 3160 3160 3157 3158
2951 2954 2961 2969 2977 2985 2991 3000 3010 3022 3027 3036 3045 3056 3063 3070 3077 3083 3088 3092 3097 3102 3105 3109 3114 3122 3122 3125 3128 3131 3134 3138 3140 3143 3145 3147 3148 3149 3153 3154 3155 3154 3153 3154 3156 3156 3151
2939 2944 2947 2954 2962 2971 2978 2986 2995 3010 3013 3026 3034 3042 3052 3060 3066 3070 3075 3080 3088 3091 3091 3099 3107 3112 3116 3119 3123 3125 3127 3131 3134 3137 3139 3141 3142 3143 3147 3147 3147 3147 3148 3149 3150 3149 3145
2927 2931 2936 2940 2948 2956 2966 2973 2984 2994 3003 3015 3025 3031 3040 3046 3053 3059 3065 3069 3079 3084 3088 3095 3100 3104 3108 3112 3117 3118 3123 3127 3129 3131 3133 3136 3134 3140 3140 3142 3142 3142 3144 3144 3144 3141 3141
2915 2919 2924 2929 2934 2942 2952 2962 2971 2984 2995 3002 3015 3024 3030 3036 3040 3044 3052 3065 3071 3075 3083 3085 3090 3096 3101 3107 3108 3110 3117 3119 3123 3125 3127 3130 3131 3131 3135 3135 3137 3138 3139 3140 3140 3139 3137
2902 2906 2911 2917 2923 2929 2938 2948 2959 2969 2983 2992 3003 3016 3023 3028 3031 3033 3041 3055 3061 3067 3078 3074 3076 3082 3089 3095 3098 3102 3108 3115 3116 3119 3122 3124 3124 3126 3128 3130 3134 3135 3133 3134 3135 3137 3137
2889 2894 2898 2904 2911 2917 2925 2933 2945 2957 2967 2980 2993 3000 3014 3016 3021 3023 3035 3044 3052 3064 3072 3065 3062 3067 3076 3083 3090 3092 3100 3104 3108 3112 3117 3119 3118 3120 3121 3126 3128 3132 3128 3129 3132 3132 3133
2872 2878 2885 2891 2897 2905 2914 2922 2932 2945 2956 2967 2979 2990 3001 3009 3012 3019 3026 3033 3038 3054 3046 3046 3047 3052 3063 3071 3079 3080 3090 3096 3103 3106 3107 3113 3111 3115 3118 3120 3124 3125 3127 3128 3129 3131 3126
2855 2861 2870 2878 2884 2894 2902 2911 2920 2933 2946 2957 2969 2981 2989 2998 3002 3009 3017 3022 3033 3034 3034 3036 3036 3040 3053 3059 3067 3071 3077 3080 3088 3097 3098 3106 3104 3108 3112 3116 3119 3122 3126 3126 3127 3124 3117
2836 2846 2855 2865 2873 2882 2892 2901 2910 2921 2935 2947 2959 2970 2978 2988 2995 3000 3003 3011 3016 3017 3023 3027 3031 3040 3046 3052 3059 3061 3069 3073 3079 3086 3094 3096 3100 3100 3099 3105 3110 3113 3119 3116 3115 3111 3110
2822 2831 2843 2853 2863 2872 2882 2891 2901 2911 2923 2937 2950 2960 2968 2979 2986 2988 2992 2993 2995 3002 3015 3022 3029 3033 3039 3043 3049 3055 3060 3065 3069 3076 3086 3088 3092 3091 3094 3099 3107 3108 3108 3116 3117 3114 3114
2811 2820 2832 2843 2854 2864 2873 2883 2892 2901 2913 2929 2939 2951 2957 2970 2978 2978 2977 2977 2989 2998 3008 3014 3017 3023 3029 3036 3042 3046 3053 3055 3063 3067 3077 3082 3087 3085 3090 3096 3099 3102 3106 3111 3112 3110 3107
2802 2814 2826 2836 2846 2855 2865 2874 2884 2893 2904 2918 2930 2935 2940 2957 2970 2964 2961 2969 2982 2989 3001 3006 3012 3017 3023 3028 3037 3040 3044 3049 3054 3059 3068 3076 3080 3085 3086 3085 3088 3094 3097 3101 3104 3102 3097
2801 2812 2822 2830 2840 2848 2857 2865 2876 2886 2897 2908 2916 2921 2930 2940 2951 2952 2950 2960 2973 2981 2993 3001 3007 3011 3016 3022 3030 3037 3040 3046 3047 3052 3058 3069 3074 3078 3081 3081 3085 3089 3091 3092 3092 3093 3093
2810 2814 2820 2826 2834 2840 2849 2858 2868 2878 2888 2898 2903 2914 2920 2927 2925 2936 2945 2957 2965 2975 2982 2992 2998 3003 3011 3015 3027 3032 3037 3041 3044 3049 3054 3062 3065 3072 3077 3079 3076 3077 3083 3085 3088 3090 3084
2808 2810 2815 2820 2827 2833 2842 2851 2860 2870 2881 2889 2897 2900 2909 2910 2921 2928 2935 2945 2957 2967 2976 2984 2991 2999 3004 3012 3022 3026 3031 3035 3040 3047 3051 3055 3056 3057 3059 3063 3064 3068 3072 3077 3082 3082 3076
2798 2802 2806 2811 2819 2826 2834 2843 2852 2862 2873 2880 2881 2886 2895 2890 2900 2917 2927 2943 2944 2954 2967 2976 2984 2990 2996 3005 3014 3020 3027 3029 3037 3042 3044 3048 3048 3053 3057 3057 3058 3061 3065 3070 3070 3066 3072
2791 2792 2795 2801 2809 2818 2826 2835 2844 2855 2866 2869 2874 2880 2887 2892 2898 2908 2919 2926 2934 2945 2949 2964 2975 2983 2993 3000 3006 3013 3017 3019 3027 3034 3039 3040 3041 3046 3049 3052 3052 3054 3057 3060 3060 3061 3064
2777 2775 2784 2791 2801 2810 2818 2827 2836 2846 2854 2858 2862 2874 2882 2888 2893 2901 2905 2918 2928 2941 2949 2957 2969 2979 2988 2991 3006 3008 3012 3016 3021 3027 3030 3032 3037 3039 3040 3046 3047 3048 3033 3048 3051 3051 3054
2758 2761 2776 2787 2796 2804 2812 2820 2829 2839 2845 2853 2863 2871 2877 2882 2889 2892 2901 2912 2924 2931 2943 2955 2964 2972 2981 2988 2994 3000 3006 3012 3017 3020 3023 3025 3029 3032 3035 3038 3036 3026 3032 3035 3038 3037 3041
2772 2772 2780 2787 2792 2799 2807 2814 2823 2833 2840 2850 2855 2865 2878 2877 2885 2890 2900 2911 2921 2931 2938 2945 2954 2966 2972 2980 2990 2995 2999 3004 3007 3010 3013 3016 3021 3023 3026 3025 3025 3022 3022 3025 3024 3024 3032
2783 2782 2783 2786 2790 2796 2802 2811 2819 2827 2836 2846 2854 2863 2869 2872 2875 2886 2896 2905 2913 2924 2928 2931 2948 2955 2963 2969 2974 2980 2986 2991 2997 2998 3003 3006 3011 3016 3019 3018 3013 3011 3018 3016 3018 3013 3021
2789 2784 2781 2784 2788 2793 2800 2807 2815 2824 2833 2841 2849 2858 2865 2874 2873 2878 2885 2895 2904 2911 2923 2931 2933 2947 2953 2959 2968 2974 2977 2980 2982 2985 2991 2996 3001 3003 3007 3007 3004 3006 3008 3010 3013 3010 3010
2792 2787 2780 2780 2784 2791 2797 2805 2813 2822 2830 2840 2850 2858 2863 2866 2872 2875 2882 2889 2892 2907 2914 2921 2932 2935 2943 2952 2960 2960 2963 2969 2976 2980 2981 2984 2992 2995 2999 3000 2996 2998 2999 3001 3002 3002 3004
2798 2792 2787 2782 2785 2791 2796 2803 2813 2821 2829 2836 2843 2851 2857 2865 2869 2873 2878 2886 2894 2905 2912 2917 2923 2928 2935 2945 2947 2952 2957 2960 2965 2971 2972 2979 2977 2985 2987 2985 2986 2988 2989 2990 2993 2995 2996
Wind_Speed
75 68 71 60 50 49 54 53 50 47 47 48 47 46 44 43 41 40 38 37 35 33 32 30 28 25 24 21 20 17 13 13 16 14 14 14 12 11 12 12 11 13 15 15 16 17 18
65 76 68 70 68 49 43 56 57 48 50 49 49 47 45 44 43 41 40 38 36 35 34 32 30 28 27 24 21 21 20 19 18 16 15 14 13 12 12 12 12 14 15 16 16 17 19
62 64 77 72 72 66 70 42 54 47 49 52 48 48 46 45 44 42 40 39 38 36 36 34 33 31 30 25 22 21 22 20 20 18 16 15 14 13 12 12 13 15 16 17 19 19 23
71 68 66 78 73 77 74 68 41 52 47 52 48 47 46 46 45 43 41 41 40 38 38 37 35 33 33 28 26 24 23 22 20 19 19 17 16 16 14 14 17 19 22 14 15 16 21
50 68 68 67 80 75 78 75 56 45 49 52 52 49 46 45 46 44 43 43 42 41 40 38 36 34 33 31 29 26 24 23 22 21 20 18 17 18 16 16 15 18 14 13 12 23 21
39 47 68 69 73 82 80 80 76 54 43 44 48 52 50 46 46 45 46 45 43 43 43 40 38 31 33 20 29 30 25 25 25 23 23 21 21 20 18 20 17 15 12 12 13 11 14
41 43 46 65 73 73 78 76 79 78 54 35 44 45 55 55 51 50 52 51 48 48 50 44 35 33 29 20 27 18 26 28 27 26 23 21 21 23 17 18 18 21 14 16 17 15 22
45 42 45 47 64 72 75 71 74 73 74 66 35 36 39 53 55 55 52 53 50 47 45 43 40 35 27 31 28 25 27 24 22 22 23 22 26 20 21 22 23 21 17 18 18 16 18
47 45 44 48 49 64 72 68 69 70 72 78 64 39 35 33 54 55 57 50 48 46 41 37 39 42 39 32 30 32 30 28 24 24 23 20 16 14 18 22 21 22 19 16 13 12 16
46 47 46 46 48 52 65 74 62 62 71 75 70 60 44 38 48 56 63 51 49 45 26 30 43 44 42 42 41 35 29 26 26 26 25 22 26 27 25 24 22 17 17 17 13 9 10
46 49 48 47 50 51 52 66 59 57 60 70 72 78 47 36 36 56 53 51 48 37 7 19 34 43 44 46 33 40 39 36 33 33 29 20 23 20 26 22 21 14 16 11 12 13 15
46 50 50 48 50 53 53 49 68 61 50 61 56 67 69 47 38 38 47 49 53 25 12 15 23 36 44 44 44 34 34 42 38 29 36 28 22 20 14 16 14 15 10 9 7 10 13
54 50 51 48 50 52 51 53 56 63 55 53 56 63 66 70 48 42 44 49 32 12 18 16 26 31 34 42 40 50 42 45 35 27 33 25 29 24 24 18 16 17 14 7 8 9 9
49 54 50 48 50 51 50 51 48 66 60 53 45 61 44 67 44 50 49 55 12 28 31 13 25 22 28 31 38 33 35 40 40 27 18 28 15 30 28 30 23 29 26 12 7 10 8
40 51 49 46 49 50 47 51 49 51 68 51 50 57 51 48 52 45 55 46 28 25 34 23 24 29 25 30 21 28 35 40 41 38 25 18 17 15 17 22 26 22 34 24 7 4 4
39 46 46 44 46 49 45 48 47 45 54 58 50 54 59 51 55 47 61 51 43 44 26 34 26 29 29 32 25 31 30 29 34 42 35 12 7 10 19 21 21 21 18 19 20 7 10
34 42 39 39 42 45 47 46 47 44 45 64 53 48 48 52 52 54 57 46 46 50 37 39 28 29 27 33 27 31 22 13 34 31 34 20 15 6 18 22 28 26 24 20 22 20 8
27 32 35 37 39 41 44 45 47 44 44 64 58 44 32 52 60 66 56 49 62 47 40 39 35 33 32 31 31 26 23 19 16 32 36 28 13 16 18 13 21 27 26 31 21 14 29
20 26 29 34 36 38 42 42 46 45 49 60 69 45 47 38 64 53 52 59 54 51 49 44 34 39 37 34 20 27 23 22 18 22 24 31 16 14 8 11 18 27 33 32 33 18 26
23 27 31 34 35 37 41 43 46 48 50 53 61 39 59 56 67 64 52 48 58 55 53 51 42 39 39 36 31 25 20 26 24 19 19 17 15 22 22 12 16 30 30 34 32 33 35
30 31 35 36 36 37 41 42 44 49 50 51 50 32 33 57 58 62 56 51 50 48 50 52 37 43 44 33 41 21 25 29 27 27 26 26 20 25 25 21 16 16 22 28 36 44 35
30 34 39 40 37 37 41 43 44 51 51 53 46 44 61 52 64 62 60 52 49 53 60 56 46 36 38 32 39 36 34 30 35 32 31 30 21 27 29 26 32 23 24 25 34 37 39
20 35 37 40 35 37 39 41 44 52 54 56 60 43 31 63 45 50 67 49 49 53 50 59 47 37 43 43 23 24 30 31 27 30 32 35 32 20 25 23 26 20 48 34 34 38 37
11 14 32 35 34 35 37 38 44 54 55 55 55 61 20 34 47 48 52 60 53 47 47 42 45 40 40 35 35 24 22 23 29 27 28 34 40 26 21 22 10 33 22 28 36 39 38
16 15 24 27 33 33 36 38 43 52 54 53 42 40 49 15 37 48 48 55 45 33 46 43 39 43 36 36 32 28 28 35 37 34 37 40 39 17 12 15 20 21 25 30 32 38 33
6 6 21 24 21 31 34 38 43 47 48 46 48 34 54 20 20 39 54 52 49 58 37 40 43 48 45 38 35 25 18 25 17 20 44 34 30 29 17 11 12 23 24 34 30 31 33
24 10 16 21 25 28 30 34 39 43 42 41 44 38 41 30 28 38 48 53 49 50 57 45 36 34 38 41 35 28 19 18 15 17 21 34 37 39 31 16 19 24 31 23 18 26 17
28 29 11 20 26 29 30 31 35 35 35 40 42 39 41 7 24 36 40 49 48 58 45 42 38 40 52 37 37 21 14 18 16 21 24 31 24 26 33 23 18 33 31 29 28 24 24
30 30 31 15 19 31 31 34 31 31 37 36 38 46 50 27 20 35 38 37 42 50 54 48 39 40 40 38 25 21 16 19 28 20 30 22 29 23 23 23 28 20 25 26 28 23 20
Wind_Direction
233 238 233 224 219 220 222 225 226 228 229 229 228 228 227 227 228 228 230 232 233 234 236 238 240 242 242 239 237 240 230 228 227 224 226 228 229 232 238 250 260 261 267 272 276 283 285
233 234 237 231 228 215 217 221 225 229 231 229 228 228 227 228 228 230 232 233 235 237 238 239 241 242 245 246 242 242 243 241 240 239 238 239 237 235 241 242 245 262 269 274 277 281 285
235 233 232 235 232 229 231 219 215 214 227 230 228 228 228 229 229 230 232 234 235 237 239 240 242 243 242 240 240 239 242 241 241 238 237 237 241 248 252 263 264 266 268 274 278 278 281
236 237 230 232 235 230 230 230 219 215 213 224 225 227 227 228 230 231 232 234 236 237 240 240 242 245 245 240 240 236 237 238 237 236 237 237 244 251 258 268 275 276 280 280 267 286 281
242 234 232 228 232 236 232 228 219 225 210 219 225 226 226 227 229 229 231 233 235 237 239 243 243 246 249 242 243 236 235 235 236 238 241 243 248 256 263 271 275 278 264 266 273 281 274
247 242 233 232 228 231 236 232 224 227 225 207 211 224 225 227 225 227 229 230 233 236 237 239 243 244 243 240 243 239 231 230 233 238 244 246 252 256 259 258 262 268 255 261 260 272 275
249 245 241 235 230 228 233 235 235 224 224 216 211 212 221 225 222 223 225 224 225 229 233 232 239 239 241 243 238 232 229 226 228 231 234 240 243 250 263 261 252 255 255 260 261 267 280
248 248 245 239 234 231 230 234 233 232 230 234 224 206 213 222 221 223 224 228 233 236 240 238 236 236 234 231 232 226 221 221 218 222 228 237 248 255 251 253 255 257 253 262 269 270 280
247 246 245 242 237 232 228 231 233 229 228 230 225 214 209 218 223 218 222 224 226 231 234 239 238 234 232 230 227 228 228 222 218 227 236 239 257 239 245 251 255 257 249 252 251 270 278
242 244 245 242 236 232 230 227 229 230 227 226 230 223 221 210 218 224 218 216 223 224 223 238 232 234 225 228 233 228 224 221 224 233 238 247 246 246 250 254 249 245 254 245 248 257 257
243 242 242 240 235 232 231 226 225 224 229 227 223 227 219 218 219 220 223 211 214 212 218 231 227 229 227 222 228 228 224 228 232 234 234 237 248 252 247 243 239 238 253 231 227 241 266
239 237 238 238 233 229 231 228 220 221 222 220 215 223 220 214 220 224 224 220 206 184 223 203 210 214 218 217 217 221 220 226 228 230 235 230 245 232 228 230 231 233 215 203 214 242 250
237 233 232 234 231 225 226 230 223 217 216 213 209 217 222 219 226 227 222 210 180 200 206 207 199 202 206 211 206 219 215 213 207 203 224 228 233 232 228 217 207 199 189 198 226 214 243
237 229 228 228 226 224 226 224 227 214 210 209 214 211 216 218 224 219 208 206 185 214 200 196 194 198 195 199 210 209 207 211 210 213 222 212 213 216 227 220 220 211 203 207 228 227 241
234 222 224 224 220 222 224 222 224 224 212 208 211 210 211 207 217 225 204 192 202 196 193 175 165 180 185 197 198 194 208 213 215 205 201 206 220 224 214 214 207 211 215 216 264 285 271
227 217 217 218 218 219 223 220 218 221 218 202 199 210 215 207 204 219 210 203 219 218 191 191 185 191 186 193 189 191 194 214 211 213 208 214 197 209 212 193 209 220 210 197 213 228 236
216 206 210 213 219 218 220 219 217 215 216 206 201 211 215 208 205 214 211 211 210 208 204 198 195 194 195 193 195 191 202 203 207 210 202 205 201 190 181 200 201 201 198 207 213 225 237
195 195 207 211 216 217 216 216 213 211 208 207 206 214 206 209 203 208 201 201 211 208 194 200 199 206 193 188 192 191 205 197 199 203 195 197 206 209 212 214 210 221 215 207 205 203 232
204 209 212 214 216 217 213 213 210 210 204 205 205 218 202 208 197 207 205 209 214 196 189 192 194 202 198 189 188 201 200 193 185 191 186 189 201 186 202 234 220 217 218 221 225 236 231
221 214 218 217 217 216 214 214 210 208 203 209 213 222 210 202 208 202 203 210 203 210 212 207 204 196 194 192 200 205 199 201 204 192 188 199 204 204 213 227 210 212 218 220 221 226 235
223 230 220 218 219 215 212 212 210 205 204 206 215 217 205 218 200 201 201 202 194 189 198 198 194 196 194 193 199 200 197 205 203 201 205 207 221 224 231 232 213 222 228 222 219 231 227
242 225 224 217 215 215 212 209 208 202 204 207 208 216 215 213 222 196 201 209 188 187 187 194 194 179 192 201 213 212 208 207 209 205 202 215 223 230 236 231 234 240 241 233 233 238 240
287 233 216 214 206 212 209 208 206 199 202 207 215 196 208 221 206 203 206 198 204 201 202 201 215 206 210 219 212 213 223 224 218 216 214 214 216 217 235 232 242 247 242 234 239 241 240
18 202 206 203 206 207 205 205 200 199 206 205 218 218 203 224 220 221 215 204 209 202 208 210 213 209 221 205 210 209 213 217 216 218 227 226 218 219 233 223 217 246 252 243 242 247 245
34 161 186 198 204 202 203 200 199 201 205 206 212 218 215 204 211 221 207 202 196 200 206 211 207 208 205 205 211 222 229 233 225 230 235 224 225 213 212 202 259 262 246 246 241 254 252
29 123 202 194 201 202 203 200 199 204 207 205 210 219 219 244 238 209 202 210 199 204 206 171 197 206 205 197 197 199 203 219 209 203 219 207 209 224 225 229 231 264 255 259 264 262 267
47 43 222 199 188 192 194 194 197 204 201 204 207 216 219 235 242 192 207 196 191 199 215 220 206 199 199 206 205 206 202 186 184 197 204 214 224 216 219 229 246 247 252 256 234 260 259
23 39 60 203 192 189 187 185 189 192 194 191 202 206 198 190 205 191 189 195 195 203 193 187 187 197 200 206 200 198 215 213 209 212 217 212 204 217 227 236 239 243 247 240 250 251 259
35 29 55 144 189 186 183 188 192 193 196 193 203 208 217 212 184 188 206 207 204 211 213 222 223 221 223 218 215 215 197 200 218 228 230 219 216 223 217 235 240 236 241 244 252 243 254